AirNav   Duncan Aviation - Near you to keep you flying
 
 611 users online  

GA39 Hodges Airpark
Savannah, Georgia, USA

GOING TO SAVANNAH?


FAA INFORMATION EFFECTIVE 11 AUGUST 2022

Location

FAA Identifier: GA39
Lat/Long: 31-59-03.7490N 081-14-46.4000W
31-59.062483N 081-14.773333W
31.9843747,-81.2462222
(estimated)
Elevation: 10 ft. / 3 m (estimated)
Variation: 04W (1985)
From city: 6 miles SW of SAVANNAH, GA
Time zone: UTC -4 (UTC -5 during Standard Time)
Zip code: 31419

Airport Operations

Airport use: Private use. Permission required prior to landing
Activation date: 01/1976
Control tower: no
ARTCC: JACKSONVILLE CENTER
FSS: MACON FLIGHT SERVICE STATION
Attendance: CONTINUOUS
Wind indicator: yes
Segmented circle: no

Airport Communications

WX ASOS at SAV (9 nm N): PHONE 912-966-0364

Nearby radio navigation aids

VOR radial/distance  VOR name  Freq  Var
SVNr255/5.6HUNTER VOR/DME111.6002W
SAVr200/10.0SAVANNAH VORTAC115.9506W

 
NDB name  Hdg/Dist  Freq  Var  ID
WASSA269/13.333504WSV ... ...-
MC INTOSH060/16.326304WMOQ -- --- --.-

Airport Services

Runway Information

Runway 12/30

Dimensions: 2640 x 60 ft. / 805 x 18 m
Surface: turf
RUNWAY 12  RUNWAY 30
Traffic pattern: rightright
Obstructions: 50 ft. trees50 ft. rr

Airport Ownership and Management from official FAA records

Ownership: Privately-owned
Owner: ROBERT J. HODGES
500 HINESVILLE ROAD
SAVANNAH, GA 31405
Phone 912-925-3664
Manager: ROBERT J. HODGES
500 HINESVILLE ROAD
SAVANNAH, GA 31405
Phone 912-925-3664
912-441-3790 CELL

Airport Operational Statistics

Aircraft based on the field: 21
Single engine airplanes: 18
Multi engine airplanes: 1
Ultralights: 2
    

Additional Remarks

FOR CD CTC SAVANNAH APCH AT 912-964-3205, WHEN APCH CLSD CTC JACKSONVILLE ARTCC AT 904-845-1592.

Instrument Procedures

There are no published instrument procedures at GA39.

Some nearby airports with instrument procedures:

KSVN - Hunter Army Airfield (5 nm E)
KSAV - Savannah/Hilton Head International Airport (9 nm N)
KLHW - Wright Army Airfield (Fort Stewart)/Midcoast Regional Airport (17 nm W)
KHXD - Hilton Head Airport (31 nm NE)
KCWV - Claxton-Evans County Airport (34 nm W)
 
Loc | Ops | Rwys | IFR | FBO | Links
Com | Nav | Svcs | Stats | Notes
Area around GA39 (Hodges Airpark)
 
Road maps at: MapQuest Bing Google
 
Aerial photo
WARNING: Photo may not be current or correct
Aerial photo of GA39 (Hodges Airpark)
Do you have a better or more recent aerial photo of Hodges Airpark that you would like to share? If so, please send us your photo.

 
Sectional chart

 
Airport distance calculator
Flying to Hodges Airpark? Find the distance to fly.

From to GA39

Sunrise and sunset
Times for 16-Aug-2022
 Local
(UTC-4)
 Zulu
(UTC)
Morning civil twilight06:2510:25
Sunrise06:5110:51
Sunset20:0700:07
Evening civil twilight20:3300:33

Current date and time
Zulu (UTC)  16-Aug-2022 08:23:03
Local (UTC-4)  16-Aug-2022 04:23:03
 
METAR
KSVN 
5nm E 
160756Z AUTO 19007KT 10SM -RA FEW044 BKN055 BKN100 OVC140 25/19 A2982 RMK AO2 SLP101 P0000 T02480189 $
KSAV 
8nm N 
160753Z AUTO 22008KT 10SM BKN090 24/17 A2985 RMK AO2 RAE12 SLP107 P0000 T02440172
KLHW 
18nm SW 
160756Z AUTO 09003KT 10SM SCT095 22/21 A2982 RMK AO2 RAB04E26DZB26E28 SLP101 P0004 T02210212 $
TAF
KSVN 
5nm E 
160400Z 1604/1710 20009KT 9999 FEW040 QNH2980INS TEMPO 1604/1606 8000 -TSRA FEW040CB BECMG 1613/1614 23012KT 9000 -SHRA FEW017 QNH2981INS BECMG 1705/1706 05006KT 8000 BR SCT017 QNH2980INS TX31/1621Z TN23/1611Z
KSAV 
8nm N 
160520Z 1606/1706 22007KT P6SM VCSH SCT050 BKN080 FM161100 25006KT P6SM SCT040 BKN150 FM161900 27009KT P6SM VCTS SCT040CB BKN080 FM162300 02005KT P6SM FEW030 BKN060
NOTAMs
Click for the latest NOTAMs
NOTAMs are issued by the DoD/FAA and will open in a separate window not controlled by AirNav.

 

 
 

Would you like to see your business listed on this page?

 If your business provides an interesting product or service to pilots, flight crews, aircraft, or users of the Hodges Airpark, you should consider listing it here.  To start the listing process, click on the button below
 
Add a business
 

Other Pages about Hodges Airpark

Update a link
 
Copyright © AirNav, LLC. All rights reserved. Privacy Policy  Contact